• In Uzbekistan
  • List of Countries
  • For 7 days
  • Water Temperature
  • Satellite Maps
  • Weather Map
  • Weather Widgets
  • user-avatar
    Login

    Hourly Weather Rachinovka

    Today, 20 July, Friday

    Time Temperature Precipitation Wind Pressure Humidity
    00:00 +19°C° 0 mm 3 mps 735 mmHg 90%
    01:00 +19°C° 0 mm 3 mps 735 mmHg 91%
    02:00 +19°C° 0 mm 3 mps 735 mmHg 91%
    03:00 +18°C° 0 mm 3 mps 736 mmHg 92%
    04:00 +19°C° 0 mm 3 mps 736 mmHg 91%
    05:00 +19°C° 0 mm 3 mps 736 mmHg 90%
    06:00 +20°C° 0 mm 2 mps 736 mmHg 89%
    07:00 +21°C° 0.1 mm 3 mps 736 mmHg 83%
    08:00 +24°C° 0.1 mm 3 mps 736 mmHg 78%
    09:00 +26°C° 0.1 mm 3 mps 736 mmHg 72%
    10:00 +27°C° 0.3 mm 3 mps 736 mmHg 68%
    11:00 +28°C° 0.3 mm 3 mps 736 mmHg 63%
    12:00 +29°C° 0.3 mm 3 mps 736 mmHg 58%
    13:00 +29°C° 1.1 mm 3 mps 736 mmHg 61%
    14:00 +29°C° 1.1 mm 3 mps 736 mmHg 64%
    15:00 +28°C° 1.1 mm 4 mps 736 mmHg 66%
    16:00 +27°C° 0.6 mm 3 mps 736 mmHg 71%
    17:00 +26°C° 0.6 mm 3 mps 735 mmHg 77%
    18:00 +25°C° 0.6 mm 2 mps 735 mmHg 82%
    19:00 +24°C° 0.1 mm 2 mps 735 mmHg 84%
    20:00 +23°C° 0.1 mm 2 mps 735 mmHg 85%
    21:00 +21°C° 0.1 mm 2 mps 735 mmHg 87%
    22:00 +21°C° 0 mm 2 mps 735 mmHg 88%
    23:00 +20°C° 0 mm 3 mps 735 mmHg 90%

    Tomorrow, 21 July, Saturday

    Time Temperature Precipitation Wind Pressure Humidity
    00:00 +20°C° 0 mm 3 mps 735 mmHg 91%
    01:00 +20°C° 0 mm 3 mps 735 mmHg 92%
    02:00 +20°C° 0 mm 3 mps 735 mmHg 93%
    03:00 +19°C° 0 mm 3 mps 735 mmHg 95%
    04:00 +20°C° 0 mm 3 mps 735 mmHg 93%
    05:00 +20°C° 0 mm 2 mps 735 mmHg 92%
    06:00 +21°C° 0 mm 2 mps 735 mmHg 91%
    07:00 +22°C° 0.2 mm 3 mps 735 mmHg 86%
    08:00 +25°C° 0.2 mm 3 mps 735 mmHg 80%
    09:00 +26°C° 0.2 mm 3 mps 735 mmHg 75%
    10:00 +27°C° 0.5 mm 3 mps 735 mmHg 72%
    11:00 +28°C° 0.5 mm 4 mps 735 mmHg 69%
    12:00 +29°C° 0.5 mm 4 mps 734 mmHg 65%
    13:00 +29°C° 0.8 mm 4 mps 734 mmHg 66%
    14:00 +29°C° 0.8 mm 4 mps 734 mmHg 67%
    15:00 +29°C° 0.8 mm 3 mps 734 mmHg 68%
    16:00 +28°C° 0.4 mm 3 mps 734 mmHg 71%
    17:00 +28°C° 0.4 mm 3 mps 734 mmHg 74%
    18:00 +28°C° 0.4 mm 3 mps 735 mmHg 77%
    19:00 +26°C° 0.1 mm 3 mps 735 mmHg 81%
    20:00 +25°C° 0.1 mm 3 mps 735 mmHg 85%
    21:00 +24°C° 0.1 mm 3 mps 735 mmHg 89%
    22:00 +23°C° 0 mm 2 mps 735 mmHg 90%
    23:00 +21°C° 0 mm 2 mps 735 mmHg 91%

    Day after tomorrow, 22 July, Sunday

    Time Temperature Precipitation Wind Pressure Humidity
    00:00 +21°C° 0 mm 2 mps 735 mmHg 93%
    01:00 +20°C° 0 mm 2 mps 735 mmHg 93%
    02:00 +20°C° 0 mm 2 mps 735 mmHg 94%
    03:00 +20°C° 0 mm 3 mps 735 mmHg 95%
    04:00 +20°C° 0 mm 2 mps 735 mmHg 94%
    05:00 +20°C° 0 mm 2 mps 735 mmHg 93%
    06:00 +21°C° 0 mm 2 mps 735 mmHg 92%
    07:00 +22°C° 0 mm 3 mps 736 mmHg 88%
    08:00 +24°C° 0 mm 3 mps 736 mmHg 84%
    09:00 +25°C° 0 mm 4 mps 736 mmHg 81%
    10:00 +26°C° 0.4 mm 4 mps 736 mmHg 77%
    11:00 +27°C° 0.4 mm 4 mps 736 mmHg 74%
    12:00 +28°C° 0.4 mm 4 mps 736 mmHg 70%
    13:00 +28°C° 0.9 mm 4 mps 736 mmHg 72%
    14:00 +27°C° 0.9 mm 4 mps 736 mmHg 73%
    15:00 +27°C° 0.9 mm 4 mps 736 mmHg 74%
    16:00 +27°C° 0.3 mm 4 mps 736 mmHg 77%
    17:00 +27°C° 0.3 mm 4 mps 736 mmHg 79%
    18:00 +26°C° 0.3 mm 4 mps 736 mmHg 81%
    19:00 +25°C° 0.1 mm 4 mps 736 mmHg 85%
    20:00 +23°C° 0.1 mm 4 mps 736 mmHg 88%
    21:00 +22°C° 0.1 mm 4 mps 736 mmHg 91%
    22:00 +21°C° 0 mm 3 mps 736 mmHg 92%
    23:00 +21°C° 0 mm 3 mps 736 mmHg 93%

    23 July, Monday

    Time Temperature Precipitation Wind Pressure Humidity
    00:00 +21°C° 0 mm 3 mps 736 mmHg 94%
    01:00 +20°C° 0 mm 3 mps 736 mmHg 95%
    02:00 +20°C° 0 mm 3 mps 736 mmHg 95%
    03:00 +20°C° 0 mm 3 mps 736 mmHg 95%
    04:00 +20°C° 0 mm 3 mps 736 mmHg 94%
    05:00 +21°C° 0 mm 3 mps 736 mmHg 93%
    06:00 +21°C° 0 mm 3 mps 737 mmHg 92%
    07:00 +22°C° 0.3 mm 3 mps 737 mmHg 87%
    08:00 +25°C° 0.3 mm 4 mps 737 mmHg 83%
    09:00 +26°C° 0.3 mm 4 mps 737 mmHg 78%
    10:00 +26°C° 2.5 mm 3 mps 737 mmHg 78%
    11:00 +26°C° 2.5 mm 3 mps 737 mmHg 78%
    12:00 +27°C° 2.5 mm 3 mps 737 mmHg 78%
    13:00 +27°C° 1 mm 3 mps 737 mmHg 76%
    14:00 +27°C° 1 mm 3 mps 737 mmHg 73%
    15:00 +28°C° 1 mm 3 mps 738 mmHg 71%
    16:00 +27°C° 0.8 mm 4 mps 738 mmHg 75%
    17:00 +27°C° 0.8 mm 4 mps 738 mmHg 78%
    18:00 +26°C° 0.8 mm 4 mps 738 mmHg 82%
    19:00 +25°C° 0.2 mm 4 mps 738 mmHg 85%
    20:00 +23°C° 0.2 mm 4 mps 738 mmHg 88%
    21:00 +22°C° 0.2 mm 4 mps 739 mmHg 91%
    22:00 +21°C° 0 mm 3 mps 739 mmHg 92%
    23:00 +21°C° 0 mm 3 mps 739 mmHg 93%

    24 July, Tuesday

    Time Temperature Precipitation Wind Pressure Humidity
    00:00 +21°C° 0 mm 3 mps 739 mmHg 93%
    01:00 +20°C° 0.1 mm 3 mps 739 mmHg 94%
    02:00 +20°C° 0.1 mm 3 mps 739 mmHg 94%
    03:00 +20°C° 0.1 mm 3 mps 739 mmHg 95%
    04:00 +20°C° 0 mm 3 mps 739 mmHg 94%
    05:00 +20°C° 0 mm 3 mps 739 mmHg 93%
    06:00 +20°C° 0 mm 3 mps 740 mmHg 92%
    07:00 +22°C° 0.1 mm 3 mps 740 mmHg 89%
    08:00 +24°C° 0.1 mm 3 mps 740 mmHg 85%
    09:00 +25°C° 0.1 mm 3 mps 740 mmHg 81%
    10:00 +26°C° 1.5 mm 4 mps 740 mmHg 78%
    11:00 +27°C° 1.5 mm 4 mps 740 mmHg 75%
    12:00 +28°C° 1.5 mm 4 mps 740 mmHg 72%
    13:00 +27°C° 1.4 mm 4 mps 741 mmHg 74%
    14:00 +27°C° 1.4 mm 4 mps 741 mmHg 76%
    15:00 +26°C° 1.4 mm 4 mps 741 mmHg 79%
    16:00 +26°C° 0.4 mm 3 mps 741 mmHg 79%
    17:00 +26°C° 0.4 mm 3 mps 741 mmHg 80%
    18:00 +25°C° 0.4 mm 3 mps 741 mmHg 81%
    19:00 +24°C° 0.1 mm 3 mps 742 mmHg 81%
    20:00 +22°C° 0.1 mm 3 mps 742 mmHg 82%
    21:00 +21°C° 0.1 mm 3 mps 742 mmHg 82%
    22:00 +21°C° 0 mm 3 mps 742 mmHg 80%
    23:00 +21°C° 0 mm 3 mps 742 mmHg 78%

    25 July, Wednesday

    Time Temperature Precipitation Wind Pressure Humidity
    00:00 +20°C° 0 mm 3 mps 742 mmHg 76%
    01:00 +20°C° 0 mm 3 mps 742 mmHg 73%
    02:00 +20°C° 0 mm 3 mps 742 mmHg 71%
    03:00 +19°C° 0 mm 3 mps 742 mmHg 68%
    04:00 +19°C° 0.1 mm 4 mps 742 mmHg 69%
    05:00 +18°C° 0.1 mm 4 mps 742 mmHg 70%
    06:00 +17°C° 0.1 mm 5 mps 742 mmHg 71%
    07:00 +19°C° 0.1 mm 6 mps 742 mmHg 71%
    08:00 +19°C° 0.1 mm 6 mps 742 mmHg 71%
    09:00 +18°C° 0.1 mm 7 mps 742 mmHg 71%
    10:00 +20°C° 0 mm 7 mps 742 mmHg 70%
    11:00 +20°C° 0 mm 7 mps 742 mmHg 70%
    12:00 +21°C° 0 mm 7 mps 742 mmHg 69%
    13:00 +22°C° 0 mm 7 mps 742 mmHg 69%
    14:00 +23°C° 0 mm 7 mps 743 mmHg 68%
    15:00 +24°C° 0 mm 8 mps 743 mmHg 67%
    16:00 +24°C° 0 mm 7 mps 743 mmHg 69%
    17:00 +24°C° 0 mm 6 mps 743 mmHg 70%
    18:00 +23°C° 0 mm 6 mps 743 mmHg 72%
    19:00 +22°C° 0 mm 6 mps 743 mmHg 70%
    20:00 +21°C° 0 mm 5 mps 743 mmHg 68%
    21:00 +20°C° 0 mm 5 mps 744 mmHg 67%
    22:00 +20°C° 0 mm 5 mps 744 mmHg 64%
    23:00 +19°C° 0 mm 5 mps 744 mmHg 62%
    Show more